Weather History for Park Rapids, MN

Change the Weather History Date:

Tuesday, November 1, 2011

  Actual Average Record
Temperature  
Mean Temperature 42 °F -  
Max Temperature 51 °F 45 °F 69 °F (1950)
Min Temperature 36 °F 28 °F 0 °F (1951)
Degree Days  
Heating Degree Days 23    
Moisture  
Dew Point 32 °F    
Average Humidity 69    
Maximum Humidity 89    
Minimum Humidity 48    
Precipitation  
Precipitation 0.01 in - - ()
Sea Level Pressure  
Sea Level Pressure 29.94 in    
Wind  
Wind Speed 7 mph (WNW)    
Max Wind Speed 14 mph    
Max Gust Speed -    
Visibility 10 miles    
Events      
Averages and records for this station are not official NWS values.
T = Trace of Precipitation, MM = Missing Value Source: NWS Daily Summary

Daily Weather History Graph

Daily Weather History Graph

Search for Another Location

Airport:

Trip Planner

Search our weather history database for the weather conditions in past years. The results will help you decide how hot, cold, wet, or windy it might be!

Date:

Astronomy

Nov. 01, 2011 Rise Set
Actual Time 8:02 AM CDT 6:04 PM CDT
Civil Twilight 7:30 AM CDT 6:36 PM CDT
Nautical Twilight 6:54 AM CDT 7:12 PM CDT
Astronomical Twilight 6:19 AM CDT 7:47 PM CDT
Moon 1:53 PM CDT (11/1) 11:45 PM CDT (11/1)
Length of Visible Light 11h 05m
Length of Day
10h 02m
Waxing Crescent, 40% of the Moon is Illuminated
Nov 1
Waxing Crescent
Nov 2
First Quarter
Nov 10
Full
Nov 18
Last Quarter
Nov 25
New

Hourly Weather History & Observations

Time (CDT) Temp. Windchill Dew Point Humidity Pressure Visibility Wind Dir Wind Speed Gust Speed Precip Events Conditions
12:53 AM 44.1 °F 40.1 °F 30.0 °F 58% 29.80 in 10.0 mi South 6.9 mph - N/A   Clear
1:53 AM 43.0 °F 38.8 °F 30.9 °F 62% 29.80 in 10.0 mi South 6.9 mph - N/A   Clear
2:53 AM 42.1 °F 40.2 °F 30.9 °F 65% 29.82 in 10.0 mi South 3.5 mph - N/A   Scattered Clouds
3:53 AM 41.0 °F 37.1 °F 30.9 °F 67% 29.82 in 10.0 mi South 5.8 mph - N/A   Scattered Clouds
4:53 AM 42.8 °F 39.3 °F 32.0 °F 66% 29.79 in 10.0 mi SSW 5.8 mph - N/A   Overcast
5:53 AM 42.1 °F 38.4 °F 35.1 °F 76% 29.84 in 10.0 mi WSW 5.8 mph - 0.00 in   Overcast
6:53 AM 44.1 °F 40.8 °F 39.0 °F 82% 29.84 in 10.0 mi WNW 5.8 mph - 0.00 in   Overcast
7:53 AM 42.8 °F 38.6 °F 39.2 °F 87% 29.83 in 10.0 mi WNW 6.9 mph - N/A   Overcast
8:53 AM 41.0 °F 37.1 °F 37.9 °F 89% 29.90 in 10.0 mi WNW 5.8 mph - N/A   Overcast
9:53 AM 41.0 °F 35.2 °F 36.0 °F 82% 29.92 in 10.0 mi NW 9.2 mph - 0.00 in   Overcast
10:53 AM 43.0 °F 37.2 °F 34.0 °F 71% 29.95 in 10.0 mi NW 10.4 mph - N/A   Overcast
11:53 AM 44.6 °F 40.7 °F 33.8 °F 66% 29.91 in 10.0 mi NNW 6.9 mph - N/A   Overcast
12:53 PM 45.0 °F 39.7 °F 35.1 °F 68% 29.96 in 10.0 mi NW 10.4 mph - N/A   Mostly Cloudy
1:53 PM 46.4 °F 42.4 °F 33.8 °F 62% 29.93 in 10.0 mi NNW 8.1 mph - N/A   Clear
2:53 PM 48.9 °F - 33.1 °F 54% 29.96 in 10.0 mi WNW 13.8 mph - N/A   Clear
3:53 PM 48.9 °F - 30.0 °F 48% 29.98 in 10.0 mi NW 11.5 mph - N/A   Clear
4:53 PM 46.9 °F - 30.0 °F 52% 30.00 in 10.0 mi NNW 9.2 mph - N/A   Clear
5:53 PM 44.1 °F 41.5 °F 28.9 °F 55% 30.02 in 10.0 mi NW 4.6 mph - N/A   Clear
6:53 PM 39.0 °F 35.7 °F 28.9 °F 67% 30.04 in 10.0 mi WNW 4.6 mph - N/A   Clear
7:53 PM 37.0 °F 33.3 °F 28.9 °F 73% 30.08 in 10.0 mi WNW 4.6 mph - N/A   Clear
8:53 PM 36.0 °F 31.1 °F 28.9 °F 76% 30.09 in 10.0 mi WNW 5.8 mph - N/A   Clear
9:53 PM 36.0 °F 31.1 °F 28.0 °F 73% 30.11 in 10.0 mi WNW 5.8 mph - N/A   Clear
10:53 PM 36.0 °F 31.1 °F 28.0 °F 73% 30.13 in 10.0 mi WNW 5.8 mph - N/A   Clear
11:53 PM 36.0 °F 31.1 °F 28.0 °F 73% 30.14 in 10.0 mi WNW 5.8 mph - N/A   Clear